This demonstration page uses our WeatherBlox Daily Observations layout. Learn more.

Left ArrowRight Arrow

39.01783, -85.05884

Hourly Observations for September 23, 2020

Temp ( °F °C ) Dew Point ( °F °C ) Humidity (%) Winds ( mph kmh ) Pressure ( in mb ) Visibility ( mi km ) Precip ( " mm )
12:52 am 00:52 Partly Cloudy 54 12.2 51 10.6 90 90 SW 3 6 30.11 1020 10 16 0.00 0.00
1:52 am 01:52 Partly Cloudy 53 11.7 51 10.6 93 93 S 3 6 30.10 1019 10 16 0.00 0.00
2:52 am 02:52 Partly Cloudy 55 12.8 52 11.1 90 90 Calm 30.10 1019 10 16 0.00 0.00
3:52 am 03:52 Mostly Clear 52 11.1 50 10 93 93 Calm 30.09 1019 9 14 0.00 0.00
4:52 am 04:52 Partly Cloudy 54 12.2 51 10.6 90 90 Calm 30.09 1019 10 16 0.00 0.00
5:52 am 05:52 Partly Cloudy 53 11.7 49 9.4 86 86 WSW 3 6 30.09 1019 10 16 0.00 0.00
6:52 am 06:52 Mostly Cloudy 51 10.6 49 9.4 92 92 Calm 30.10 1019 9 14 0.00 0.00
7:52 am 07:52 Mostly Cloudy 52 11.1 50 10 93 93 Calm 30.11 1020 10 16 0.00 0.00
8:52 am 08:52 Mostly Cloudy 56 13.3 53 11.7 90 90 Calm 30.11 1020 10 16 0.00 0.00
9:52 am 09:52 Sunny 60 15.6 54 12.2 80 80 W 3 6 30.12 1020 10 16 0.00 0.00
10:52 am 10:52 Mostly Cloudy 68 20 53 11.7 59 59 WNW 6 9 30.12 1020 10 16 0.00 0.00
11:52 am 11:52 Cloudy 70 21.1 53 11.7 55 55 N 7 11 30.11 1020 10 16 0.00 0.00
12:52 pm 12:52 Mostly Cloudy 73 22.8 53 11.7 50 50 N 8 13 30.09 1019 10 16 0.00 0.00
1:52 pm 13:52 Cloudy 73 22.8 52 11.1 48 48 NNW 7 11 30.07 1018 10 16 0.00 0.00
2:52 pm 14:52 Cloudy 74 23.3 53 11.7 48 48 WSW 3 6 30.05 1018 10 16 0.00 0.00
3:52 pm 15:52 Cloudy 72 22.2 54 12.2 53 53 W 6 9 30.05 1018 10 16 0.00 0.00
4:52 pm 16:52 Cloudy 72 22.2 53 11.7 52 52 W 6 9 30.04 1017 10 16 0.00 0.00
5:52 pm 17:52 Cloudy 71 21.7 55 12.8 57 57 W 5 7 30.05 1018 10 16 0.00 0.00
6:52 pm 18:52 Cloudy 69 20.6 55 12.8 61 61 WSW 3 6 30.05 1018 10 16 0.00 0.00
7:52 pm 19:52 Cloudy 67 19.4 55 12.8 66 66 WSW 3 6 30.04 1017 10 16 0.00 0.00
8:52 pm 20:52 Cloudy 64 17.8 56 13.3 75 75 Calm 30.04 1017 10 16 0.00 0.00
9:52 pm 21:52 Cloudy 64 17.8 56 13.3 75 75 WSW 3 6 30.04 1017 10 16 0.00 0.00
10:52 pm 22:52 Cloudy 61 16.1 55 12.8 81 81 WSW 3 6 30.04 1017 10 16 0.00 0.00
11:52 pm 23:52 Cloudy 62 16.7 55 12.8 78 78 W 5 7 30.04 1017 10 16 0.00 0.00

Powered by AerisWeather